Flag for Germany Weather past 2 weeks in Bad Salzuflen, North Rhine-Westphalia, Germany

Now
48 °F

Cool.


Feels Like: 42 °F
Forecast: 40 / 46 °F
Wind: 17 mph from West

Location: Bueckeburg

Current Time: Mar 29, 2015 at 12:22:37 PM

Latest Report: Mar 29, 2015 at 11:20 AM


Visibility: 3 mi

Pressure: 29.53 "Hg

Humidity: 87%

Dew point: 45 °F

Location of Bad SalzuflenLocation

Historic Weather in Bad Salzuflen — Graph

°F

Bad Salzuflen temperature yesterday

Maximum temperature yesterday: 54 °F (at 3:20 PM)
Minimum temperature yesterday: 37 °F (at 5:20 AM)
Average temperature yesterday: 46 °F

Past Weeks' High & Low Weather Summary

 TemperatureHumidityPressure
High63 °F (Mar 25, 3:20 PM)100% (Mar 18, 3:20 AM)30.39 "Hg (Mar 18, 3:20 AM)
Low30 °F (Mar 20, 5:20 AM)39% (Mar 25, 3:20 PM)29.56 "Hg (Mar 29, 7:20 AM)
Average43 °F79%30.09 "Hg
* Reported Mar 14 9:20 AM — Mar 29 10:20 AM, Bad Salzuflen, Weather by CustomWeather, © 2015

Note: Actual official high and low records may vary slightly from our data, if they occured in-between our weather recording intervals... More about our weather records

Advertising

Bad Salzuflen weather history for previous 24 hours

 ConditionsComfort  
Time TempWeatherWind HumidityBarometerVisibility
10:20 AM
Sun, Mar 29
48 °FCool.16 mph87%29.56 "Hg3 mi
9:20 AM48 °FCool.12 mph87%29.56 "Hg2 mi
8:20 AM50 °FCool.20 mph82%29.56 "Hg2 mi
7:20 AM50 °FCool.17 mph82%29.56 "Hg4 mi
6:20 AM52 °FCool.18 mph77%29.59 "Hg2 mi
5:20 AM52 °FCool.22 mph82%29.59 "Hg4 mi
4:20 AM52 °FCool.16 mph88%29.59 "Hg4 mi
3:20 AM50 °FCool.15 mph94%29.65 "Hg1 mi
1:20 AM52 °FCool.14 mph88%29.65 "Hg1 mi
12:20 AM50 °FCool.16 mph94%29.68 "Hg3 mi
11:20 PM
Sat, Mar 28
50 °FCool.17 mph88%29.74 "Hg2 mi
10:20 PM50 °FCool.17 mph88%29.74 "Hg3 mi
9:20 PM48 °FCool.15 mph87%29.77 "Hg4 mi
8:20 PM48 °FCool.18 mph87%29.83 "Hg3 mi
7:20 PM48 °FCool.12 mph76%29.83 "Hg4 mi
6:20 PM48 °FCool.15 mph71%29.86 "Hg4 mi
5:20 PM50 °FCool.14 mph67%29.86 "Hg4 mi
4:20 PM52 °FCool.14 mph58%29.92 "Hg3 mi
3:20 PM54 °FCool.13 mph47%29.95 "Hg4 mi
2:20 PM52 °FCool.14 mph50%29.95 "Hg3 mi
1:20 PM52 °FCool.13 mph50%30.01 "Hg3 mi
12:20 PM50 °FCool.12 mph50%30.04 "Hg4 mi
Weather by CustomWeather, © 2015

See weather overviewHow to use our weather pages